Location: Unspecified
(0.0000°N, 0.0000°E)
Time: 03:19:24
(UTC+01:00)

ATLAS V CENTAUR R/B - Visible Passes

Search period start: 29 November 2014 00:00
Search period end: 09 December 2014 00:00
Orbit: 246 x 30197 km, 17.8° (Epoch: 27 November)

Date Brightness Start Highest point End Pass type
(mag) Time Alt. Az. Time Alt. Az. Time Alt. Az.
29 Nov 7.7 00:16:40 10° W 06:45:36 71° ESE 08:20:46 10° ENE visible
30 Nov 8.1 02:47:40 10° WSW 10:26:31 78° NNW 10:50:51 10° ENE visible
30 Nov 3.7 19:57:59 10° NW 20:00:57 59° NNE 20:14:20 10° ESE visible
01 Dec 6.6 05:33:16 10° WSW 13:07:35 44° NNW 13:16:11 10° NE visible
01 Dec 6.4 22:22:24 10° W 22:30:31 66° S 06:15:25 10° E visible
03 Dec 8.0 00:49:03 10° WSW 07:33:31 82° SE 08:53:55 10° ENE visible
04 Dec 7.7 03:21:26 10° WSW 11:03:25 68° NNW 11:21:24 10° ENE visible
04 Dec 4.3 20:27:37 10° WNW 20:31:23 87° SSW 20:55:21 10° ESE visible
05 Dec 11.3 01:24:56 10° ESE 02:37:33 13° E 03:26:43 10° E visible
05 Dec 6.3 06:16:02 10° WSW 13:38:33 33° NNW 13:45:17 10° NE visible
05 Dec 7.1 22:51:45 10° W 23:02:52 61° S 06:49:56 10° ENE visible
07 Dec 8.2 01:18:35 10° WSW 08:29:11 88° NW 09:23:07 10° ENE visible
08 Dec 7.4 03:52:48 10° WSW 11:34:34 59° NNW 11:48:36 10° NE visible
08 Dec 5.2 20:54:17 10° W 20:59:06 69° S 21:44:10 10° ESE visible
